TimeEST,TemperatureF,Dew PointF,Humidity,Sea Level PressureIn,VisibilityMPH,Wind Direction,Wind SpeedMPH,Gust SpeedMPH,PrecipitationIn,Events,Conditions,WindDirDegrees,DateUTC
12:40 AM,39.2,37.4,93,30.29,0.8,WSW,6.9,-,N/A,,Mist,240,2011-11-24 05:40:00
12:54 AM,39.0,37.9,96,30.29,0.8,SW,8.1,-,N/A,,Mist,230,2011-11-24 05:54:00
1:02 AM,39.2,37.4,93,30.28,1.0,SW,6.9,-,N/A,,Mist,230,2011-11-24 06:02:00
1:19 AM,39.2,37.4,93,30.28,2.5,SW,9.2,-,N/A,,Overcast,220,2011-11-24 06:19:00
1:30 AM,39.2,37.4,93,30.28,3.0,SW,11.5,-,N/A,,Overcast,230,2011-11-24 06:30:00
1:54 AM,39.9,37.9,93,30.29,4.0,SW,4.6,-,N/A,,Overcast,230,2011-11-24 06:54:00
2:54 AM,39.9,37.0,89,30.28,3.0,WSW,11.5,-,N/A,,Overcast,240,2011-11-24 07:54:00
3:36 AM,39.2,37.4,93,30.28,2.0,SW,8.1,-,N/A,,Overcast,220,2011-11-24 08:36:00
3:45 AM,39.2,37.4,93,30.28,1.5,SW,6.9,-,N/A,,Overcast,220,2011-11-24 08:45:00
3:54 AM,39.9,37.9,93,30.29,1.0,SW,9.2,-,N/A,,Overcast,220,2011-11-24 08:54:00
4:54 AM,41.0,39.0,93,30.29,1.8,SW,10.4,-,N/A,,Overcast,230,2011-11-24 09:54:00
5:01 AM,41.0,39.2,93,30.28,2.5,SSW,6.9,-,N/A,,Overcast,210,2011-11-24 10:01:00
5:29 AM,41.0,39.2,93,30.28,4.0,SW,10.4,-,N/A,,Overcast,230,2011-11-24 10:29:00
5:54 AM,42.1,39.9,92,30.30,5.0,SW,5.8,-,N/A,,Overcast,230,2011-11-24 10:54:00
6:54 AM,43.0,39.9,89,30.30,6.0,SW,8.1,-,N/A,,Overcast,220,2011-11-24 11:54:00
7:54 AM,43.0,41.0,93,30.31,6.0,SW,6.9,-,N/A,,Overcast,220,2011-11-24 12:54:00
8:54 AM,44.1,41.0,89,30.31,6.0,SW,9.2,-,N/A,,Overcast,230,2011-11-24 13:54:00
9:54 AM,44.1,41.0,89,30.32,7.0,SW,10.4,18.4,N/A,,Overcast,230,2011-11-24 14:54:00
10:54 AM,45.0,41.0,86,30.32,9.0,SW,15.0,-,N/A,,Overcast,220,2011-11-24 15:54:00
11:54 AM,45.0,41.0,86,30.31,9.0,SSW,12.7,18.4,N/A,,Overcast,210,2011-11-24 16:54:00
12:52 PM,46.4,41.0,81,30.28,10.0,SW,8.1,-,N/A,,Overcast,220,2011-11-24 17:52:00
12:54 PM,46.9,41.0,80,30.29,10.0,SW,10.4,-,N/A,,Overcast,220,2011-11-24 17:54:00
3:47 PM,48.2,41.0,76,30.23,10.0,SW,10.4,-,N/A,,Partly Cloudy,220,2011-11-24 20:47:00
3:54 PM,48.0,41.0,77,30.24,10.0,SW,11.5,-,N/A,,Scattered Clouds,220,2011-11-24 20:54:00
4:54 PM,46.9,41.0,80,30.23,10.0,SW,8.1,-,N/A,,Clear,220,2011-11-24 21:54:00
5:54 PM,45.0,41.0,86,30.23,10.0,SSW,6.9,-,N/A,,Clear,200,2011-11-24 22:54:00
6:54 PM,44.1,39.9,85,30.23,10.0,SSW,8.1,-,N/A,,Partly Cloudy,200,2011-11-24 23:54:00
7:54 PM,43.0,39.9,89,30.22,10.0,SW,6.9,-,N/A,,Partly Cloudy,220,2011-11-25 00:54:00
8:25 PM,42.8,39.2,87,30.21,10.0,SSW,5.8,-,N/A,,Mostly Cloudy,210,2011-11-25 01:25:00
8:51 PM,42.8,39.2,87,30.21,9.0,SSW,5.8,-,N/A,,Scattered Clouds,210,2011-11-25 01:51:00
8:54 PM,42.1,39.0,89,30.22,8.0,SSW,6.9,-,N/A,,Scattered Clouds,210,2011-11-25 01:54:00
9:43 PM,42.8,39.2,87,30.20,8.0,SW,5.8,-,N/A,,Mostly Cloudy,220,2011-11-25 02:43:00
9:54 PM,42.1,39.0,89,30.21,8.0,SSW,6.9,-,N/A,,Scattered Clouds,210,2011-11-25 02:54:00
10:54 PM,42.1,39.0,89,30.19,8.0,SSW,6.9,-,N/A,,Partly Cloudy,200,2011-11-25 03:54:00